Flag for Lebanon Weather past 2 weeks in Beirut, Lebanon

Now
57 °F

Sunny.


Feels Like: 56 °F
Forecast: 61 / 70 °F
Wind: 7 mph from East

Location: Beirut Airport

Current Time: Apr 25, 2015 at 7:44:16 AM

Latest Report: Apr 25, 2015 at 7:00 AM


Visibility: N/A

Pressure: 30.24 "Hg

Humidity: 48%

Dew point: 37 °F

Location of BeirutLocation

Historic Weather in Beirut — Graph

°F

Beirut temperature yesterday

Maximum temperature yesterday: 66 °F (at 3:00 PM)
Minimum temperature yesterday: 54 °F (at 4:00 AM)
Average temperature yesterday: 61 °F

Past Weeks' High & Low Weather Summary

 TemperatureHumidityPressure
High81 °F (Apr 20, 10:00 PM)83% (Apr 16, 9:00 PM)30.30 "Hg (Apr 16, 9:00 PM)
Low52 °F (Apr 12, 2:00 AM)14% (Apr 20, 10:00 PM)29.80 "Hg (Apr 20, 10:00 PM)
Average63 °F63%30.05 "Hg
* Reported Apr 10 6:00 AM — Apr 25 6:00 AM, Beirut, Weather by CustomWeather, © 2015

Note: Actual official high and low records may vary slightly from our data, if they occured in-between our weather recording intervals... More about our weather records

Advertising

Beirut weather history for previous 24 hours

 ConditionsComfort  
Time TempWeatherWind HumidityBarometerVisibility
6:00 AM
Sat, Apr 25
55 °FClear.6 mph51%30.24 "HgN/A
5:00 AM57 °FClear.8 mph48%30.24 "HgN/A
4:00 AM57 °FClear.6 mph48%30.24 "Hg5 mi
3:00 AM57 °FClear.5 mph51%30.24 "HgN/A
2:00 AM57 °FClear.5 mph55%30.24 "HgN/A
1:00 AM59 °FClear.6 mph51%30.27 "HgN/A
12:00 AM59 °FClear.5 mph51%30.27 "HgN/A
11:00 PM
Fri, Apr 24
59 °FClear.5 mph51%30.27 "HgN/A
10:00 PM61 °FClear.5 mph48%30.27 "HgN/A
9:00 PM61 °FClear.7 mph48%30.27 "Hg10 mi
8:00 PM61 °FPassing clouds.12 mph48%30.24 "HgN/A
7:00 PM63 °FPassing clouds.9 mph45%30.24 "HgN/A
6:00 PM64 °FPassing clouds.8 mph43%30.24 "HgN/A
5:00 PM64 °FPassing clouds.8 mph43%30.21 "HgN/A
4:00 PM64 °FPassing clouds.7 mph37%30.21 "HgN/A
3:00 PM66 °FPassing clouds.6 mph35%30.21 "HgN/A
2:00 PM64 °FPassing clouds.6 mph37%30.21 "HgN/A
1:00 PM64 °FScattered clouds.6 mph37%30.21 "HgN/A
12:00 PM64 °FScattered clouds.6 mph40%30.21 "HgN/A
11:00 AM64 °FScattered clouds.6 mph37%30.18 "HgN/A
10:00 AM64 °FScattered clouds.8 mph43%30.18 "HgN/A
9:00 AM63 °FScattered clouds.8 mph45%30.15 "HgN/A
8:00 AM61 °FPartly sunny.12 mph48%30.15 "Hg5 mi
7:00 AM59 °FPartly sunny.8 mph55%30.12 "Hg5 mi
Weather by CustomWeather, © 2015

See weather overviewHow to use our weather pages